Location: Newark
(50.4348°N, 30.5552°E)
Time: 20:10:04
(UTC+00:00)

Tiros 1 despin weight - Pass Details

Date: 01 February 2020
Orbit: 594 x 642 km, 48.2° (Epoch: 27 February)

Event Time Altitude Azimuth Distance (km) Brightness Sun altitude
Rises 11:37:24 0° 280° (W) 2,881 ? 19.8°
Reaches altitude 10° 11:39:50 10° 271° (W) 1,982 ? 19.6°
Maximum altitude 11:43:57 34° 206° (SSW) 1,031 ? 19.4°
Drops below altitude 10° 11:48:06 10° 142° (SE) 2,002 ? 19.1°
Sets 11:50:35 0° 133° (SE) 2,915 ? 19.0°
